CSN9531 ZBTJ-ZSPD

Flight info

Callsign CSN9531
Flight time 1h 52m
Altitude 37100
Route IGMOR4ZD IGMOR W36 LOTGO W575 GOTSU W201 HCH W5 TAO DCT URBAD W172 LATUX W108 MATNU
Aircraft A20N/M-SDE2E3FGHIRWXY/LB1

Departure

Time 2026-04-15 13:36
Airport Tianjin Binhai International Airport (ZBTJ)

Arrival

Time 2026-04-15 15:29
Airport Shanghai Pudong International Airport (ZSPD)
Time Latitude Longitude Altitude Speed Heading
2026-04-15 13:08 39.12712 117.35171 22 ft 0 kts 93°
2026-04-15 13:22 39.12713 117.35152 22 ft 2 kts 93°
2026-04-15 13:22 39.12714 117.35131 22 ft 2 kts 93°
2026-04-15 13:23 39.12715 117.35110 22 ft 2 kts 93°
2026-04-15 13:23 39.12716 117.35089 22 ft 2 kts 90°
2026-04-15 13:23 39.12714 117.35068 23 ft 2 kts 72°
2026-04-15 13:23 39.12707 117.35049 26 ft 2 kts 46°
2026-04-15 13:24 39.12693 117.35039 23 ft 2 kts 14°
2026-04-15 13:24 39.12686 117.35037 23 ft 0 kts
2026-04-15 13:29 39.12695 117.35039 23 ft 5 kts
2026-04-15 13:29 39.12749 117.35039 22 ft 11 kts 359°
2026-04-15 13:30 39.12808 117.34966 22 ft 16 kts 293°
2026-04-15 13:30 39.12788 117.34827 22 ft 16 kts 247°
2026-04-15 13:30 39.12799 117.34781 24 ft 5 kts 327°
2026-04-15 13:30 39.12842 117.34751 22 ft 8 kts 333°
2026-04-15 13:31 39.12899 117.34715 22 ft 11 kts 335°
2026-04-15 13:31 39.12986 117.34664 22 ft 15 kts 334°
2026-04-15 13:31 39.13079 117.34607 23 ft 15 kts 335°
2026-04-15 13:31 39.13171 117.34551 22 ft 14 kts 334°
2026-04-15 13:32 39.13260 117.34496 22 ft 14 kts 335°
2026-04-15 13:32 39.13346 117.34444 22 ft 14 kts 334°
2026-04-15 13:32 39.13431 117.34392 22 ft 13 kts 334°
2026-04-15 13:32 39.13513 117.34342 22 ft 13 kts 334°
2026-04-15 13:33 39.13594 117.34292 24 ft 13 kts 334°
2026-04-15 13:33 39.13674 117.34244 23 ft 12 kts 335°
2026-04-15 13:33 39.13752 117.34197 24 ft 12 kts 334°
2026-04-15 13:33 39.13822 117.34144 24 ft 11 kts 312°
2026-04-15 13:34 39.13814 117.34063 24 ft 9 kts 243°
2026-04-15 13:34 39.13787 117.33991 24 ft 9 kts 244°
2026-04-15 13:34 39.13763 117.33927 23 ft 7 kts 244°
2026-04-15 13:34 39.13744 117.33875 24 ft 6 kts 244°
2026-04-15 13:35 39.13728 117.33848 26 ft 2 kts 196°
2026-04-15 13:35 39.13694 117.33843 24 ft 6 kts 170°
2026-04-15 13:35 39.13670 117.33858 23 ft 2 kts 153°
2026-04-15 13:35 39.13460 117.33988 22 ft 67 kts 154°
2026-04-15 13:36 39.12836 117.34372 23 ft 130 kts 154°
2026-04-15 13:36 39.11868 117.34967 177 ft 164 kts 155°
2026-04-15 13:36 39.10858 117.35529 909 ft 153 kts 156°
2026-04-15 13:36 39.09905 117.36118 1486 ft 165 kts 156°
2026-04-15 13:37 39.08772 117.36833 1748 ft 199 kts 157°
2026-04-15 13:37 39.07415 117.37680 1951 ft 234 kts 156°
2026-04-15 13:37 39.05894 117.38627 2528 ft 248 kts 156°
2026-04-15 13:37 39.04320 117.39607 3306 ft 254 kts 156°
2026-04-15 13:38 39.02715 117.40603 4122 ft 258 kts 156°
2026-04-15 13:38 39.01083 117.41613 4925 ft 263 kts 156°
2026-04-15 13:38 38.99426 117.42657 5729 ft 268 kts 153°
2026-04-15 13:38 38.97987 117.44078 6545 ft 274 kts 132°
2026-04-15 13:39 38.97105 117.46257 7408 ft 281 kts 104°
2026-04-15 13:39 38.97049 117.48779 8319 ft 286 kts 86°
2026-04-15 13:39 38.97338 117.51323 9238 ft 289 kts 83°
2026-04-15 13:39 38.97682 117.53884 10104 ft 293 kts 83°
2026-04-15 13:40 38.98032 117.56533 10554 ft 312 kts 83°
2026-04-15 13:40 38.98394 117.59387 10842 ft 335 kts 83°
2026-04-15 13:40 38.98773 117.62436 11149 ft 356 kts 83°
2026-04-15 13:40 38.99166 117.65639 11674 ft 368 kts 83°
2026-04-15 13:41 38.99333 117.68941 12349 ft 373 kts 95°
2026-04-15 13:41 38.98752 117.72180 13043 ft 375 kts 115°
2026-04-15 13:41 38.97495 117.75128 13741 ft 378 kts 124°
2026-04-15 13:41 38.96047 117.77979 14354 ft 384 kts 126°
2026-04-15 13:42 38.94557 117.80845 14996 ft 388 kts 126°
2026-04-15 13:42 38.93051 117.83749 15642 ft 393 kts 125°
2026-04-15 13:42 38.91536 117.86689 16279 ft 397 kts 125°
2026-04-15 13:42 38.90004 117.89669 16908 ft 402 kts 125°
2026-04-15 13:43 38.88457 117.92684 17530 ft 407 kts 125°
2026-04-15 13:43 38.86893 117.95733 18144 ft 411 kts 125°
2026-04-15 13:43 38.85312 117.98816 18685 ft 416 kts 125°
2026-04-15 13:43 38.83821 118.02021 19199 ft 422 kts 118°
2026-04-15 13:44 38.82744 118.05538 19722 ft 427 kts 108°
2026-04-15 13:44 38.81967 118.09243 20235 ft 432 kts 104°
2026-04-15 13:44 38.81331 118.13028 20737 ft 437 kts 102°
2026-04-15 13:44 38.80759 118.16866 21235 ft 441 kts 102°
2026-04-15 13:45 38.80198 118.20748 21715 ft 445 kts 102°
2026-04-15 13:45 38.79625 118.24664 22203 ft 449 kts 102°
2026-04-15 13:45 38.79030 118.28610 22682 ft 453 kts 102°
2026-04-15 13:47 38.75067 118.53391 25130 ft 476 kts 103°
2026-04-15 13:47 38.74520 118.56757 25423 ft 479 kts 103°
2026-04-15 13:48 38.73838 118.60949 25769 ft 482 kts 103°
2026-04-15 13:48 38.73150 118.65169 26118 ft 486 kts 103°
2026-04-15 13:48 38.72456 118.69419 26458 ft 489 kts 103°
2026-04-15 13:48 38.71756 118.73697 26786 ft 492 kts 103°
2026-04-15 13:49 38.71050 118.77997 27111 ft 495 kts 103°
2026-04-15 13:49 38.70338 118.82329 27427 ft 498 kts 103°
2026-04-15 13:49 38.69620 118.86684 27736 ft 501 kts 103°
2026-04-15 13:49 38.68897 118.91061 28038 ft 504 kts 104°
2026-04-15 13:50 38.68168 118.95460 28343 ft 507 kts 104°
2026-04-15 13:50 38.67432 118.99892 28656 ft 510 kts 104°
2026-04-15 13:50 38.66693 119.04328 29084 ft 509 kts 104°
2026-04-15 13:50 38.65955 119.08758 29509 ft 509 kts 104°
2026-04-15 13:51 38.65464 119.11692 29780 ft 509 kts 104°
2026-04-15 13:51 38.64471 119.17620 30260 ft 510 kts 104°
2026-04-15 13:51 38.63725 119.22055 30575 ft 510 kts 104°
2026-04-15 13:51 38.62977 119.26491 30889 ft 511 kts 104°
2026-04-15 13:52 38.62227 119.30928 31196 ft 511 kts 104°
2026-04-15 13:52 38.61474 119.35373 31500 ft 511 kts 104°
2026-04-15 13:52 38.60720 119.39814 31794 ft 512 kts 104°
2026-04-15 13:52 38.59964 119.44258 32084 ft 512 kts 104°
2026-04-15 13:53 38.59205 119.48708 32376 ft 512 kts 104°
2026-04-15 13:53 38.58524 119.53178 32652 ft 514 kts 98°
2026-04-15 13:53 38.58224 119.57738 32924 ft 515 kts 94°
2026-04-15 13:53 38.58033 119.62312 33198 ft 516 kts 93°
2026-04-15 13:54 38.57900 119.66825 33463 ft 516 kts 92°
2026-04-15 13:54 38.57793 119.71407 33723 ft 516 kts 92°
2026-04-15 13:54 38.57694 119.75999 33971 ft 517 kts 92°
2026-04-15 13:54 38.57595 119.80596 34195 ft 517 kts 92°
2026-04-15 13:55 38.57489 119.85193 34393 ft 518 kts 92°
2026-04-15 13:55 38.57414 119.88305 34522 ft 519 kts 92°
2026-04-15 13:55 38.57218 119.94410 34761 ft 520 kts 97°
2026-04-15 13:55 38.56637 119.98961 34931 ft 519 kts 103°
2026-04-15 13:56 38.55867 120.03474 35118 ft 520 kts 105°
2026-04-15 13:56 38.55023 120.07963 35296 ft 520 kts 106°
2026-04-15 13:56 38.54138 120.12440 35472 ft 521 kts 107°
2026-04-15 13:56 38.53163 120.16890 35638 ft 520 kts 112°
2026-04-15 13:57 38.51774 120.21126 35779 ft 515 kts 122°
2026-04-15 13:57 38.49867 120.24953 35929 ft 507 kts 135°
2026-04-15 13:57 38.44677 120.30649 36235 ft 482 kts 161°
2026-04-15 13:58 38.41651 120.32311 36386 ft 467 kts 173°
2026-04-15 13:58 38.38535 120.33166 36541 ft 452 kts 184°
2026-04-15 13:58 38.36481 120.33312 36652 ft 442 kts 191°
2026-04-15 13:58 38.32338 120.33517 36891 ft 451 kts 183°
2026-04-15 13:59 38.30270 120.33916 37003 ft 456 kts 180°
2026-04-15 13:59 38.26081 120.34982 37134 ft 461 kts 178°
2026-04-15 13:59 38.20863 120.36551 37138 ft 463 kts 176°
2026-04-15 14:00 38.13610 120.38931 37138 ft 463 kts 175°
2026-04-15 14:00 38.07374 120.40990 37136 ft 463 kts 175°
2026-04-15 14:01 37.98022 120.44033 37133 ft 462 kts 175°
2026-04-15 14:02 37.91809 120.46038 37131 ft 461 kts 175°
2026-04-15 14:02 37.85579 120.48045 37130 ft 461 kts 175°
2026-04-15 14:03 37.79356 120.50047 37126 ft 461 kts 175°
2026-04-15 14:03 37.73125 120.52050 37132 ft 461 kts 175°
2026-04-15 14:04 37.66890 120.53829 37137 ft 451 kts 183°
2026-04-15 14:04 37.63832 120.54035 37132 ft 438 kts 192°
2026-04-15 14:04 37.60806 120.53808 37132 ft 434 kts 195°
2026-04-15 14:05 37.54809 120.53006 37131 ft 431 kts 197°
2026-04-15 14:05 37.48890 120.52066 37131 ft 431 kts 197°
2026-04-15 14:06 37.43932 120.51287 37134 ft 431 kts 197°
2026-04-15 14:06 37.37973 120.50381 37131 ft 431 kts 197°
2026-04-15 14:07 37.32009 120.49492 37133 ft 431 kts 197°
2026-04-15 14:07 37.25032 120.48458 37131 ft 431 kts 197°
2026-04-15 14:08 37.19104 120.47580 37134 ft 431 kts 197°
2026-04-15 14:08 37.14155 120.46847 37134 ft 430 kts 197°
2026-04-15 14:09 37.07201 120.45819 37138 ft 430 kts 197°
2026-04-15 14:09 37.01256 120.44941 37138 ft 430 kts 197°
2026-04-15 14:10 36.95316 120.44065 37130 ft 429 kts 197°
2026-04-15 14:10 36.90369 120.43337 37130 ft 429 kts 197°
2026-04-15 14:11 36.84473 120.42470 37131 ft 429 kts 197°
2026-04-15 14:11 36.78530 120.41597 37129 ft 429 kts 197°
2026-04-15 14:12 36.72590 120.40727 37133 ft 429 kts 197°
2026-04-15 14:12 36.66657 120.39859 37127 ft 429 kts 197°
2026-04-15 14:13 36.60762 120.38998 37126 ft 429 kts 197°
2026-04-15 14:13 36.54829 120.38132 37129 ft 429 kts 197°
2026-04-15 14:14 36.48826 120.37583 37128 ft 435 kts 192°
2026-04-15 14:14 36.42744 120.37401 37127 ft 437 kts 191°
2026-04-15 14:15 36.36700 120.37256 37126 ft 436 kts 192°
2026-04-15 14:15 36.30582 120.37445 37130 ft 449 kts 181°
2026-04-15 14:15 36.27488 120.38301 37131 ft 462 kts 172°
2026-04-15 14:16 36.24469 120.39790 37130 ft 471 kts 165°
2026-04-15 14:16 36.18548 120.43426 37135 ft 477 kts 161°
2026-04-15 14:17 36.12633 120.46942 37136 ft 465 kts 171°
2026-04-15 14:17 36.09551 120.47922 37138 ft 451 kts 181°
2026-04-15 14:17 36.06460 120.48400 37140 ft 446 kts 185°
2026-04-15 14:18 36.00297 120.48925 37139 ft 443 kts 187°
2026-04-15 14:18 35.94112 120.50307 37139 ft 464 kts 170°
2026-04-15 14:19 35.88039 120.53265 37139 ft 471 kts 166°
2026-04-15 14:19 35.82041 120.56581 37150 ft 473 kts 165°
2026-04-15 14:20 35.76075 120.59925 37147 ft 473 kts 165°
2026-04-15 14:20 35.70108 120.63456 37154 ft 478 kts 161°
2026-04-15 14:21 35.64261 120.67427 37152 ft 480 kts 159°
2026-04-15 14:21 35.58466 120.71445 37153 ft 480 kts 160°
2026-04-15 14:22 35.52634 120.75429 37153 ft 479 kts 160°
2026-04-15 14:22 35.46707 120.79080 37155 ft 472 kts 166°
2026-04-15 14:23 35.40657 120.82182 37155 ft 470 kts 167°
2026-04-15 14:23 35.34620 120.85159 37154 ft 470 kts 167°
2026-04-15 14:24 35.28545 120.88139 37155 ft 470 kts 167°
2026-04-15 14:24 35.22461 120.91133 37153 ft 470 kts 167°
2026-04-15 14:25 35.16432 120.94104 37155 ft 470 kts 167°
2026-04-15 14:25 35.10365 120.97111 37153 ft 470 kts 167°
2026-04-15 14:26 35.04303 121.00126 37155 ft 469 kts 167°
2026-04-15 14:26 34.98245 121.03134 37155 ft 469 kts 167°
2026-04-15 14:27 34.92228 121.06114 37155 ft 469 kts 167°
2026-04-15 14:27 34.86166 121.09110 37160 ft 469 kts 167°
2026-04-15 14:28 34.80148 121.12079 37155 ft 469 kts 167°
2026-04-15 14:28 34.74095 121.15062 37157 ft 469 kts 167°
2026-04-15 14:29 34.68023 121.18051 37163 ft 469 kts 167°
2026-04-15 14:29 34.61997 121.21011 37158 ft 469 kts 168°
2026-04-15 14:30 34.55941 121.23982 37168 ft 470 kts 168°
2026-04-15 14:30 34.49867 121.26956 37164 ft 470 kts 168°
2026-04-15 14:31 34.43831 121.29907 37158 ft 470 kts 168°
2026-04-15 14:31 34.37759 121.32871 37143 ft 471 kts 168°
2026-04-15 14:31 34.34718 121.34353 36889 ft 471 kts 168°
2026-04-15 14:32 34.31680 121.35833 36617 ft 471 kts 167°
2026-04-15 14:32 34.28635 121.37315 36373 ft 471 kts 167°
2026-04-15 14:32 34.25578 121.38801 36115 ft 472 kts 167°
2026-04-15 14:32 34.22526 121.40284 35868 ft 472 kts 167°
2026-04-15 14:33 34.19512 121.41748 35618 ft 472 kts 167°
2026-04-15 14:33 34.16463 121.43228 35377 ft 472 kts 167°
2026-04-15 14:33 34.13406 121.44711 35132 ft 472 kts 166°
2026-04-15 14:33 34.10350 121.46192 34889 ft 472 kts 166°
2026-04-15 14:34 34.07298 121.47670 34650 ft 472 kts 166°
2026-04-15 14:34 34.04237 121.49151 34409 ft 472 kts 166°
2026-04-15 14:34 34.01217 121.50611 34181 ft 473 kts 166°
2026-04-15 14:34 33.98159 121.52088 33929 ft 473 kts 166°
2026-04-15 14:35 33.95105 121.53562 33659 ft 473 kts 166°
2026-04-15 14:35 33.92044 121.55038 33390 ft 474 kts 166°
2026-04-15 14:35 33.88982 121.56514 33123 ft 475 kts 165°
2026-04-15 14:35 33.85907 121.57995 32866 ft 475 kts 165°
2026-04-15 14:36 33.82830 121.59475 32607 ft 476 kts 165°
2026-04-15 14:36 33.79750 121.60956 32344 ft 477 kts 165°
2026-04-15 14:36 33.76701 121.62420 32091 ft 478 kts 165°
2026-04-15 14:36 33.73599 121.63910 31837 ft 479 kts 165°
2026-04-15 14:37 33.70501 121.65403 31585 ft 480 kts 165°
2026-04-15 14:37 33.67402 121.66913 31337 ft 481 kts 165°
2026-04-15 14:37 33.64334 121.68415 31094 ft 482 kts 164°
2026-04-15 14:37 33.61225 121.69939 30848 ft 482 kts 164°
2026-04-15 14:38 33.58116 121.71463 30612 ft 483 kts 164°
2026-04-15 14:38 33.54996 121.72991 30371 ft 484 kts 164°
2026-04-15 14:38 33.51875 121.74517 30128 ft 485 kts 164°
2026-04-15 14:38 33.48748 121.76046 29852 ft 486 kts 164°
2026-04-15 14:39 33.45608 121.77579 29573 ft 486 kts 164°
2026-04-15 14:39 33.42471 121.79110 29297 ft 487 kts 164°
2026-04-15 14:39 33.39317 121.80647 29023 ft 488 kts 164°
2026-04-15 14:39 33.36169 121.82180 28755 ft 488 kts 164°
2026-04-15 14:40 33.33019 121.83713 28485 ft 489 kts 164°
2026-04-15 14:40 33.29906 121.85227 28226 ft 489 kts 164°
2026-04-15 14:40 33.26756 121.86757 27956 ft 489 kts 164°
2026-04-15 14:40 33.23596 121.88291 27699 ft 490 kts 164°
2026-04-15 14:41 33.20422 121.89831 27445 ft 490 kts 164°
2026-04-15 14:41 33.17249 121.91369 27185 ft 491 kts 164°
2026-04-15 14:41 33.14072 121.92907 26936 ft 492 kts 164°
2026-04-15 14:41 33.10936 121.94425 26687 ft 492 kts 164°
2026-04-15 14:42 33.07757 121.95962 26443 ft 492 kts 163°
2026-04-15 14:42 33.04591 121.97493 26195 ft 491 kts 163°
2026-04-15 14:42 33.01436 121.99017 25948 ft 489 kts 163°
2026-04-15 14:42 32.98285 122.00538 25710 ft 487 kts 163°
2026-04-15 14:43 32.95143 122.02052 25468 ft 486 kts 163°
2026-04-15 14:43 32.92005 122.03564 25229 ft 484 kts 163°
2026-04-15 14:43 32.88884 122.05067 24996 ft 483 kts 163°
2026-04-15 14:43 32.85768 122.06565 24764 ft 481 kts 163°
2026-04-15 14:44 32.82700 122.08040 24536 ft 480 kts 163°
2026-04-15 14:44 32.79606 122.09525 24306 ft 479 kts 163°
2026-04-15 14:44 32.76514 122.11009 24081 ft 477 kts 163°
2026-04-15 14:44 32.73431 122.12488 23854 ft 476 kts 163°
2026-04-15 14:45 32.70355 122.13961 23627 ft 475 kts 163°
2026-04-15 14:45 32.67300 122.15424 23364 ft 473 kts 163°
2026-04-15 14:45 32.64249 122.16884 23096 ft 471 kts 163°
2026-04-15 14:45 32.61253 122.18316 22830 ft 469 kts 162°
2026-04-15 14:46 32.58230 122.19761 22566 ft 467 kts 162°
2026-04-15 14:46 32.55214 122.21201 22307 ft 465 kts 162°
2026-04-15 14:46 32.52218 122.22631 22047 ft 462 kts 162°
2026-04-15 14:46 32.49243 122.24049 21797 ft 460 kts 162°
2026-04-15 14:47 32.46274 122.25463 21542 ft 458 kts 162°
2026-04-15 14:47 32.43321 122.26869 21303 ft 456 kts 162°
2026-04-15 14:47 32.40385 122.28265 21045 ft 454 kts 162°
2026-04-15 14:47 32.37462 122.29655 20798 ft 451 kts 162°
2026-04-15 14:48 32.34577 122.31026 20557 ft 449 kts 162°
2026-04-15 14:48 32.31684 122.32399 20313 ft 447 kts 162°
2026-04-15 14:48 32.28796 122.33769 20070 ft 445 kts 162°
2026-04-15 14:48 32.25927 122.35129 19837 ft 443 kts 162°
2026-04-15 14:49 32.23069 122.36483 19604 ft 441 kts 162°
2026-04-15 14:49 32.20224 122.37830 19366 ft 439 kts 162°
2026-04-15 14:49 32.17393 122.39170 19131 ft 437 kts 162°
2026-04-15 14:49 32.14569 122.40505 18899 ft 435 kts 162°
2026-04-15 14:50 32.11764 122.41830 18667 ft 433 kts 162°
2026-04-15 14:50 32.09001 122.43134 18444 ft 431 kts 162°
2026-04-15 14:50 32.06218 122.44447 18192 ft 429 kts 162°
2026-04-15 14:50 32.03442 122.45756 17931 ft 427 kts 162°
2026-04-15 14:51 32.00688 122.47054 17675 ft 425 kts 162°
2026-04-15 14:51 31.97942 122.48346 17418 ft 424 kts 162°
2026-04-15 14:51 31.95216 122.49629 17163 ft 422 kts 161°
2026-04-15 14:51 31.92495 122.50909 16908 ft 420 kts 161°
2026-04-15 14:52 31.89777 122.52186 16797 ft 419 kts 161°
2026-04-15 14:52 31.87067 122.53459 16786 ft 419 kts 161°
2026-04-15 14:52 31.84383 122.54719 16785 ft 418 kts 161°
2026-04-15 14:52 31.81680 122.55987 16785 ft 418 kts 161°
2026-04-15 14:53 31.78974 122.57256 16787 ft 419 kts 161°
2026-04-15 14:53 31.76266 122.58525 16785 ft 419 kts 161°
2026-04-15 14:53 31.73554 122.59794 16787 ft 419 kts 161°
2026-04-15 14:53 31.70842 122.61064 16784 ft 419 kts 161°
2026-04-15 14:54 31.68131 122.62332 16783 ft 419 kts 161°
2026-04-15 14:54 31.65450 122.63590 16762 ft 419 kts 161°
2026-04-15 14:54 31.62721 122.64777 16520 ft 416 kts 167°
2026-04-15 14:54 31.59880 122.65313 16267 ft 409 kts 182°
2026-04-15 14:55 31.57092 122.64930 16024 ft 401 kts 198°
2026-04-15 14:55 31.55364 122.64189 15865 ft 397 kts 208°
2026-04-15 14:55 31.52435 122.61708 15542 ft 390 kts 229°
2026-04-15 14:55 31.51301 122.60038 15379 ft 387 kts 238°
2026-04-15 14:56 31.50003 122.57291 15145 ft 385 kts 245°
2026-04-15 14:56 31.48841 122.54464 14907 ft 384 kts 246°
2026-04-15 14:56 31.47700 122.51641 14662 ft 383 kts 246°
2026-04-15 14:56 31.46156 122.47932 14101 ft 381 kts 242°
2026-04-15 14:57 31.45188 122.46222 13671 ft 380 kts 233°
2026-04-15 14:57 31.43253 122.44127 12948 ft 380 kts 216°
2026-04-15 14:57 31.40961 122.42610 12209 ft 375 kts 208°
2026-04-15 14:57 31.38642 122.41283 11496 ft 364 kts 207°
2026-04-15 14:58 31.36432 122.40047 11329 ft 337 kts 207°
2026-04-15 14:58 31.34397 122.38904 11218 ft 312 kts 207°
2026-04-15 14:58 31.32513 122.37841 11107 ft 290 kts 207°
2026-04-15 14:58 31.30756 122.36843 11006 ft 278 kts 207°
2026-04-15 14:59 31.29043 122.35868 10883 ft 270 kts 207°
2026-04-15 14:59 31.27347 122.34899 10621 ft 272 kts 207°
2026-04-15 14:59 31.25623 122.33913 10144 ft 277 kts 207°
2026-04-15 14:59 31.23870 122.32911 9658 ft 283 kts 207°
2026-04-15 15:00 31.22096 122.31898 9183 ft 285 kts 207°
2026-04-15 15:00 31.20327 122.30889 8737 ft 285 kts 206°
2026-04-15 15:00 31.18540 122.29870 8280 ft 285 kts 206°
2026-04-15 15:00 31.16755 122.28853 7821 ft 285 kts 206°
2026-04-15 15:01 31.14971 122.27837 7343 ft 286 kts 205°
2026-04-15 15:01 31.13162 122.26807 6660 ft 293 kts 205°
2026-04-15 15:01 31.11319 122.25758 5911 ft 294 kts 204°
2026-04-15 15:01 31.09493 122.24719 5416 ft 285 kts 204°
2026-04-15 15:02 31.07750 122.23726 5178 ft 275 kts 204°
2026-04-15 15:02 31.06056 122.22762 4949 ft 273 kts 203°
2026-04-15 15:02 31.04349 122.21792 4811 ft 272 kts 203°
2026-04-15 15:02 31.02650 122.20827 4683 ft 268 kts 203°
2026-04-15 15:03 31.01007 122.19893 4553 ft 255 kts 203°
2026-04-15 15:03 30.99438 122.19001 4431 ft 248 kts 203°
2026-04-15 15:03 30.97882 122.18120 4311 ft 248 kts 202°
2026-04-15 15:03 30.96321 122.17236 4184 ft 249 kts 202°
2026-04-15 15:04 30.94778 122.16362 4059 ft 249 kts 202°
2026-04-15 15:04 30.93222 122.15480 3936 ft 248 kts 202°
2026-04-15 15:04 30.91651 122.14591 3819 ft 257 kts 202°
2026-04-15 15:04 30.90005 122.13663 3688 ft 264 kts 202°
2026-04-15 15:05 30.88390 122.12745 3562 ft 252 kts 202°
2026-04-15 15:05 30.86867 122.11879 3445 ft 241 kts 202°
2026-04-15 15:05 30.85392 122.11041 3322 ft 230 kts 202°
2026-04-15 15:05 30.83972 122.10231 3203 ft 224 kts 204°
2026-04-15 15:06 30.82061 122.07468 2996 ft 230 kts 262°
2026-04-15 15:06 30.82263 122.05662 3001 ft 231 kts 295°
2026-04-15 15:06 30.83180 122.04136 3004 ft 231 kts 314°
2026-04-15 15:07 30.84296 122.02780 2996 ft 230 kts 316°
2026-04-15 15:07 30.85382 122.01513 3022 ft 213 kts 317°
2026-04-15 15:07 30.86414 122.00303 3004 ft 210 kts 316°
2026-04-15 15:07 30.87438 121.99091 2990 ft 210 kts 316°
2026-04-15 15:08 30.88464 121.97867 2990 ft 211 kts 316°
2026-04-15 15:08 30.89489 121.96636 2998 ft 211 kts 316°
2026-04-15 15:08 30.90510 121.95407 2999 ft 211 kts 316°
2026-04-15 15:08 30.91528 121.94177 2997 ft 210 kts 315°
2026-04-15 15:09 30.92531 121.92966 2987 ft 210 kts 316°
2026-04-15 15:09 30.93550 121.91734 2999 ft 211 kts 316°
2026-04-15 15:09 30.94569 121.90501 2999 ft 208 kts 316°
2026-04-15 15:09 30.95616 121.89472 2987 ft 186 kts 332°
2026-04-15 15:10 30.96723 121.88896 2997 ft 166 kts 346°
2026-04-15 15:10 30.97810 121.88491 3005 ft 163 kts 347°
2026-04-15 15:10 30.98891 121.88087 2997 ft 163 kts 346°
2026-04-15 15:10 30.99958 121.87682 2995 ft 163 kts 346°
2026-04-15 15:11 31.01038 121.87272 3000 ft 163 kts 346°
2026-04-15 15:11 31.02118 121.86866 3020 ft 162 kts 346°
2026-04-15 15:11 31.03190 121.86460 3014 ft 158 kts 347°
2026-04-15 15:11 31.04199 121.86079 3008 ft 148 kts 347°
2026-04-15 15:12 31.05180 121.85712 2998 ft 151 kts 347°
2026-04-15 15:12 31.06214 121.85328 2962 ft 162 kts 347°
2026-04-15 15:12 31.07296 121.84928 2951 ft 164 kts 347°
2026-04-15 15:12 31.08383 121.84514 2934 ft 165 kts 347°
2026-04-15 15:13 31.09469 121.84100 2930 ft 164 kts 347°
2026-04-15 15:13 31.10546 121.83691 3001 ft 162 kts 347°
2026-04-15 15:13 31.11623 121.83283 2995 ft 163 kts 347°
2026-04-15 15:13 31.12698 121.82891 3015 ft 166 kts 349°
2026-04-15 15:14 31.13915 121.82441 3205 ft 199 kts 342°
2026-04-15 15:14 31.15238 121.81797 3068 ft 208 kts 345°
2026-04-15 15:14 31.16641 121.81686 2997 ft 200 kts 17°
2026-04-15 15:14 31.17789 121.82474 2981 ft 188 kts 57°
2026-04-15 15:15 31.18077 121.83877 2996 ft 179 kts 103°
2026-04-15 15:15 31.17493 121.85135 2995 ft 180 kts 127°
2026-04-15 15:15 31.16669 121.86243 2995 ft 181 kts 130°
2026-04-15 15:15 31.15815 121.87322 2984 ft 181 kts 131°
2026-04-15 15:16 31.14957 121.88407 2992 ft 181 kts 130°
2026-04-15 15:16 31.14113 121.89472 2999 ft 181 kts 130°
2026-04-15 15:16 31.13260 121.90551 2992 ft 181 kts 130°
2026-04-15 15:16 31.12404 121.91633 2994 ft 181 kts 130°
2026-04-15 15:17 31.11551 121.92715 2987 ft 181 kts 130°
2026-04-15 15:17 31.10698 121.93795 2997 ft 181 kts 130°
2026-04-15 15:17 31.09842 121.94879 2990 ft 181 kts 130°
2026-04-15 15:17 31.08960 121.95907 2995 ft 182 kts 140°
2026-04-15 15:18 31.07878 121.96695 2993 ft 184 kts 147°
2026-04-15 15:18 31.06730 121.97365 2989 ft 185 kts 152°
2026-04-15 15:18 31.05517 121.97901 2996 ft 187 kts 160°
2026-04-15 15:18 31.04243 121.98261 2996 ft 188 kts 163°
2026-04-15 15:19 31.02992 121.98682 3000 ft 186 kts 155°
2026-04-15 15:19 31.01804 121.99240 2986 ft 186 kts 154°
2026-04-15 15:19 31.00609 121.99823 2989 ft 186 kts 153°
2026-04-15 15:19 30.99413 122.00410 2993 ft 187 kts 153°
2026-04-15 15:20 30.98216 122.01002 2989 ft 186 kts 153°
2026-04-15 15:20 30.97021 122.01591 2987 ft 187 kts 153°
2026-04-15 15:20 30.95822 122.02180 2991 ft 186 kts 153°
2026-04-15 15:20 30.94625 122.02765 2987 ft 186 kts 155°
2026-04-15 15:21 30.93349 122.02924 2992 ft 194 kts 188°
2026-04-15 15:21 30.92188 122.02098 3001 ft 203 kts 226°
2026-04-15 15:21 30.91450 122.00677 2998 ft 207 kts 241°
2026-04-15 15:21 30.90853 121.99148 2972 ft 204 kts 243°
2026-04-15 15:22 30.90326 121.97697 2987 ft 184 kts 250°
2026-04-15 15:22 30.90273 121.96292 2995 ft 169 kts 281°
2026-04-15 15:22 30.90620 121.95002 2996 ft 167 kts 295°
2026-04-15 15:22 30.91152 121.93805 2986 ft 166 kts 301°
2026-04-15 15:23 30.91864 121.92755 2996 ft 165 kts 315°
2026-04-15 15:23 30.92636 121.91774 2998 ft 167 kts 314°
2026-04-15 15:23 30.93410 121.90769 2992 ft 166 kts 317°
2026-04-15 15:23 30.94314 121.89958 2992 ft 163 kts 334°
2026-04-15 15:24 30.95348 121.89430 2991 ft 162 kts 345°
2026-04-15 15:24 30.96419 121.89023 2999 ft 162 kts 346°
2026-04-15 15:24 30.97498 121.88620 2993 ft 163 kts 346°
2026-04-15 15:24 30.98578 121.88214 2973 ft 163 kts 346°
2026-04-15 15:25 30.99644 121.87808 2784 ft 163 kts 346°
2026-04-15 15:25 31.00717 121.87401 2554 ft 161 kts 346°
2026-04-15 15:25 31.01782 121.86999 2328 ft 160 kts 346°
2026-04-15 15:25 31.02826 121.86604 2123 ft 155 kts 346°
2026-04-15 15:26 31.03807 121.86232 1916 ft 143 kts 346°
2026-04-15 15:26 31.04748 121.85877 1722 ft 141 kts 346°
2026-04-15 15:26 31.05685 121.85524 1528 ft 141 kts 346°
2026-04-15 15:26 31.06610 121.85174 1339 ft 141 kts 346°
2026-04-15 15:27 31.07556 121.84816 1139 ft 141 kts 345°
2026-04-15 15:27 31.08468 121.84471 952 ft 138 kts 346°
2026-04-15 15:27 31.09374 121.84128 765 ft 135 kts 345°
2026-04-15 15:27 31.10265 121.83790 583 ft 133 kts 346°
2026-04-15 15:28 31.11147 121.83457 409 ft 134 kts 345°
2026-04-15 15:28 31.12037 121.83119 220 ft 133 kts 344°
2026-04-15 15:28 31.12908 121.82790 71 ft 131 kts 345°
2026-04-15 15:28 31.13720 121.82497 25 ft 105 kts 342°
2026-04-15 15:29 31.14246 121.82292 26 ft 52 kts 340°
2026-04-15 15:29 31.14429 121.82116 26 ft 33 kts 314°
2026-04-15 15:29 31.14552 121.81979 26 ft 23 kts 323°
2026-04-15 15:29 31.14673 121.81917 25 ft 11 kts 342°
2026-04-15 15:30 31.14750 121.81888 27 ft 12 kts 343°
2026-04-15 15:30 31.14832 121.81858 24 ft 13 kts 341°
2026-04-15 15:30 31.14916 121.81825 25 ft 13 kts 342°
2026-04-15 15:30 31.14979 121.81768 26 ft 12 kts 277°
2026-04-15 15:31 31.14963 121.81681 25 ft 11 kts 252°
2026-04-15 15:31 31.14918 121.81519 25 ft 28 kts 253°
2026-04-15 15:31 31.14877 121.81370 27 ft 9 kts 253°
2026-04-15 15:31 31.14859 121.81301 26 ft 9 kts 250°
2026-04-15 15:32 31.14840 121.81236 26 ft 8 kts 252°
2026-04-15 15:32 31.14822 121.81171 26 ft 8 kts 252°
2026-04-15 15:32 31.14804 121.81106 27 ft 8 kts 252°
2026-04-15 15:32 31.14786 121.81040 26 ft 9 kts 256°
2026-04-15 15:33 31.14782 121.80974 26 ft 8 kts 267°
2026-04-15 15:33 31.14782 121.80946 26 ft 0 kts 268°